"datetime","temp","dp","rain_mm","uv","solar","mb","wind_mph","gust_mph","windchill","rh"
"2020-08-03 00:00:00",16.1,12.6,0.0,0.0,0,1014.3,1,2,"",80
"2020-08-03 00:01:00",16.1,12.6,0.0,0.0,0,1014.3,1,2,"",80
"2020-08-03 00:02:00",16.1,12.6,0.0,0.0,0,1014.2,1,1,"",80
"2020-08-03 00:03:00",16.1,12.6,0.0,0.0,0,1014.3,1,1,"",80
"2020-08-03 00:04:00",16.1,12.6,0.0,0.0,0,1014.3,1,1,"",80
"2020-08-03 00:05:00",16.1,12.6,0.0,0.0,0,1014.3,1,1,"",80
"2020-08-03 00:06:00",16.0,12.6,0.0,0.0,0,1014.3,1,3,"",80
"2020-08-03 00:07:00",16.0,12.4,0.0,0.0,0,1014.2,1,2,"",79
"2020-08-03 00:08:00",16.0,12.6,0.0,0.0,0,1014.3,0,2,"",80
"2020-08-03 00:09:00",16.0,12.6,0.0,0.0,0,1014.3,0,2,"",80
"2020-08-03 00:10:00",16.1,12.5,0.0,0.0,0,1014.3,1,2,"",79
"2020-08-03 00:11:00",16.0,12.4,0.0,0.0,0,1014.3,1,2,"",79
"2020-08-03 00:12:00",16.0,12.4,0.0,0.0,0,1014.3,1,2,"",79
"2020-08-03 00:13:00",16.0,12.4,0.0,0.0,0,1014.3,1,2,"",79
"2020-08-03 00:14:00",16.0,12.4,0.0,0.0,0,1014.2,1,2,"",79
"2020-08-03 00:15:00",16.0,12.4,0.0,0.0,0,1014.2,2,2,"",79
"2020-08-03 00:16:00",15.9,12.3,0.0,0.0,0,1014.2,1,2,"",79
"2020-08-03 00:17:00",15.9,12.3,0.0,0.0,0,1014.2,1,3,"",79
"2020-08-03 00:18:00",15.9,12.3,0.0,0.0,0,1014.2,1,2,"",79
"2020-08-03 00:19:00",15.9,12.3,0.0,0.0,0,1014.2,1,2,"",79
"2020-08-03 00:20:00",15.8,12.0,0.0,0.0,0,1014.2,1,2,"",78
"2020-08-03 00:21:00",15.8,12.0,0.0,0.0,0,1014.3,1,2,"",78
"2020-08-03 00:22:00",15.8,12.0,0.0,0.0,0,1014.3,1,2,"",78
"2020-08-03 00:23:00",15.8,12.0,0.0,0.0,0,1014.2,1,1,"",78
"2020-08-03 00:24:00",15.8,12.0,0.0,0.0,0,1014.2,1,1,"",78
"2020-08-03 00:25:00",15.8,12.0,0.0,0.0,0,1014.2,1,1,"",78
"2020-08-03 00:26:00",15.8,11.8,0.0,0.0,0,1014.2,1,2,"",77
"2020-08-03 00:27:00",15.8,11.8,0.0,0.0,0,1014.2,1,2,"",77
"2020-08-03 00:28:00",15.8,11.8,0.0,0.0,0,1014.2,1,2,"",77
"2020-08-03 00:29:00",15.7,11.7,0.0,0.0,0,1014.1,1,2,"",77
"2020-08-03 00:30:00",15.7,11.7,0.0,0.0,0,1014.2,1,2,"",77
"2020-08-03 00:31:00",15.7,11.7,0.0,0.0,0,1014.1,0,1,"",77
"2020-08-03 00:32:00",15.7,11.7,0.0,0.0,0,1014.1,1,2,"",77
"2020-08-03 00:33:00",15.6,11.6,0.0,0.0,0,1014.1,1,2,"",77
"2020-08-03 00:34:00",15.6,11.6,0.0,0.0,0,1014.1,0,1,"",77
"2020-08-03 00:35:00",15.6,11.6,0.0,0.0,0,1014.1,0,1,"",77
"2020-08-03 00:36:00",15.6,11.6,0.0,0.0,0,1014.0,1,2,"",77
"2020-08-03 00:37:00",15.6,11.6,0.0,0.0,0,1014.1,1,1,"",77
"2020-08-03 00:38:00",15.6,11.6,0.0,0.0,0,1014.1,1,2,"",77
"2020-08-03 00:39:00",15.6,11.6,0.0,0.0,0,1014.1,1,2,"",77
"2020-08-03 00:40:00",15.6,11.8,0.0,0.0,0,1014.1,1,2,"",78
"2020-08-03 00:41:00",15.5,11.7,0.0,0.0,0,1014.1,1,2,"",78
"2020-08-03 00:42:00",15.5,11.7,0.0,0.0,0,1014.1,1,2,"",78
"2020-08-03 00:43:00",15.4,11.6,0.0,0.0,0,1014.2,1,2,"",78
"2020-08-03 00:44:00",15.4,11.6,0.0,0.0,0,1014.2,1,2,"",78
"2020-08-03 00:45:00",15.4,11.6,0.0,0.0,0,1014.2,1,2,"",78
"2020-08-03 00:46:00",15.4,11.6,0.0,0.0,0,1014.2,1,1,"",78
"2020-08-03 00:47:00",15.4,11.6,0.0,0.0,0,1014.2,1,1,"",78
"2020-08-03 00:48:00",15.3,11.3,0.0,0.0,0,1014.2,1,1,"",77
"2020-08-03 00:49:00",15.3,11.5,0.0,0.0,0,1014.2,1,3,"",78
"2020-08-03 00:50:00",15.3,11.5,0.0,0.0,0,1014.2,1,2,"",78
"2020-08-03 00:51:00",15.3,11.7,0.0,0.0,0,1014.2,1,1,"",79
"2020-08-03 00:52:00",15.3,11.7,0.0,0.0,0,1014.2,1,2,"",79
"2020-08-03 00:53:00",15.2,11.6,0.0,0.0,0,1014.2,1,2,"",79
"2020-08-03 00:54:00",15.2,11.6,0.0,0.0,0,1014.2,1,2,"",79
"2020-08-03 00:55:00",15.1,11.5,0.0,0.0,0,1014.2,1,2,"",79
"2020-08-03 00:56:00",15.1,11.5,0.0,0.0,0,1014.2,1,2,"",79
"2020-08-03 00:57:00",15.1,11.5,0.0,0.0,0,1014.2,1,2,"",79
"2020-08-03 00:58:00",15.1,11.5,0.0,0.0,0,1014.2,1,1,"",79
"2020-08-03 00:59:00",15.1,11.5,0.0,0.0,0,1014.2,1,1,"",79
"2020-08-03 01:00:00",14.9,11.3,0.0,0.0,0,1014.2,1,2,"",79
"2020-08-03 01:01:00",15.0,11.4,0.0,0.0,0,1014.2,1,1,"",79
"2020-08-03 01:02:00",14.9,11.3,0.0,0.0,0,1014.2,1,1,"",79
"2020-08-03 01:03:00",14.9,11.3,0.0,0.0,0,1014.2,1,1,"",79
"2020-08-03 01:04:00",14.9,11.3,0.0,0.0,0,1014.2,1,2,"",79
"2020-08-03 01:05:00",14.9,11.3,0.0,0.0,0,1014.2,1,2,"",79
"2020-08-03 01:06:00",14.9,11.3,0.0,0.0,0,1014.2,1,2,"",79
"2020-08-03 01:07:00",14.9,11.3,0.0,0.0,0,1014.2,1,2,"",79
"2020-08-03 01:08:00",14.8,11.2,0.0,0.0,0,1014.2,1,2,"",79
"2020-08-03 01:09:00",14.8,11.4,0.0,0.0,0,1014.2,1,2,"",80
"2020-08-03 01:10:00",14.8,11.4,0.0,0.0,0,1014.2,1,2,"",80
"2020-08-03 01:11:00",14.8,11.4,0.0,0.0,0,1014.3,0,1,"",80
"2020-08-03 01:12:00",14.8,11.4,0.0,0.0,0,1014.3,1,2,"",80
"2020-08-03 01:13:00",14.8,11.4,0.0,0.0,0,1014.3,1,2,"",80
"2020-08-03 01:14:00",14.8,11.4,0.0,0.0,0,1014.3,1,1,"",80
"2020-08-03 01:15:00",14.8,11.4,0.0,0.0,0,1014.3,1,2,"",80
"2020-08-03 01:16:00",14.8,11.4,0.0,0.0,0,1014.3,1,2,"",80
"2020-08-03 01:17:00",14.8,11.4,0.0,0.0,0,1014.3,0,1,"",80
"2020-08-03 01:18:00",14.8,11.4,0.0,0.0,0,1014.3,0,1,"",80
"2020-08-03 01:19:00",14.8,11.4,0.0,0.0,0,1014.3,0,1,"",80
"2020-08-03 01:20:00",14.8,11.4,0.0,0.0,0,1014.3,0,1,"",80
"2020-08-03 01:21:00",14.9,11.5,0.0,0.0,0,1014.3,0,1,"",80
"2020-08-03 01:22:00",14.9,11.5,0.0,0.0,0,1014.3,1,1,"",80
"2020-08-03 01:23:00",14.9,11.5,0.0,0.0,0,1014.3,1,2,"",80
"2020-08-03 01:24:00",14.9,11.5,0.0,0.0,0,1014.3,0,2,"",80
"2020-08-03 01:25:00",14.9,11.5,0.0,0.0,0,1014.3,1,2,"",80
"2020-08-03 01:26:00",14.9,11.5,0.0,0.0,0,1014.3,1,1,"",80
"2020-08-03 01:27:00",14.9,11.7,0.0,0.0,0,1014.3,1,1,"",81
"2020-08-03 01:28:00",15.0,11.8,0.0,0.0,0,1014.3,1,2,"",81
"2020-08-03 01:29:00",15.0,11.8,0.0,0.0,0,1014.3,0,2,"",81
"2020-08-03 01:30:00",15.0,11.6,0.0,0.0,0,1014.3,1,2,"",80
"2020-08-03 01:31:00",15.0,11.6,0.0,0.0,0,1014.3,0,1,"",80
"2020-08-03 01:32:00",15.1,11.7,0.0,0.0,0,1014.3,0,2,"",80
"2020-08-03 01:33:00",15.1,11.7,0.0,0.0,0,1014.3,1,1,"",80
"2020-08-03 01:34:00",15.1,11.7,0.0,0.0,0,1014.3,1,2,"",80
"2020-08-03 01:35:00",15.1,11.7,0.0,0.0,0,1014.2,1,1,"",80
"2020-08-03 01:36:00",15.1,11.7,0.0,0.0,0,1014.3,0,1,"",80
"2020-08-03 01:37:00",15.1,11.5,0.0,0.0,0,1014.2,0,1,"",79
"2020-08-03 01:38:00",15.1,11.7,0.0,0.0,0,1014.2,0,1,"",80
"2020-08-03 01:39:00",15.1,11.5,0.0,0.0,0,1014.2,0,2,"",79
"2020-08-03 01:40:00",15.1,11.5,0.0,0.0,0,1014.2,0,1,"",79
"2020-08-03 01:41:00",15.1,11.7,0.0,0.0,0,1014.2,1,2,"",80
"2020-08-03 01:42:00",15.1,11.7,0.0,0.0,0,1014.2,1,2,"",80
"2020-08-03 01:43:00",15.1,11.7,0.0,0.0,0,1014.2,1,2,"",80
"2020-08-03 01:44:00",15.1,11.7,0.0,0.0,0,1014.2,1,2,"",80
"2020-08-03 01:45:00",15.1,11.7,0.0,0.0,0,1014.1,1,1,"",80
"2020-08-03 01:46:00",15.1,11.9,0.0,0.0,0,1014.2,1,2,"",81
"2020-08-03 01:47:00",15.2,12.0,0.0,0.0,0,1014.1,1,1,"",81
"2020-08-03 01:48:00",15.1,11.9,0.0,0.0,0,1014.1,1,2,"",81
"2020-08-03 01:49:00",15.1,11.7,0.0,0.0,0,1014.1,1,2,"",80
"2020-08-03 01:50:00",15.2,11.8,0.0,0.0,0,1014.1,1,2,"",80
"2020-08-03 01:51:00",15.2,11.8,0.0,0.0,0,1014.1,0,2,"",80
"2020-08-03 01:52:00",15.1,11.7,0.0,0.0,0,1014.1,0,1,"",80
"2020-08-03 01:53:00",15.2,11.8,0.0,0.0,0,1014.1,1,2,"",80
"2020-08-03 01:54:00",15.2,11.8,0.0,0.0,0,1014.1,1,1,"",80
"2020-08-03 01:55:00",15.2,11.8,0.0,0.0,0,1014.1,1,2,"",80
"2020-08-03 01:56:00",15.2,11.8,0.0,0.0,0,1014.1,0,1,"",80
"2020-08-03 01:57:00",15.2,11.8,0.0,0.0,0,1014.0,0,1,"",80
"2020-08-03 01:58:00",15.2,11.8,0.0,0.0,0,1014.1,1,2,"",80
"2020-08-03 01:59:00",15.2,11.8,0.0,0.0,0,1014.0,1,2,"",80
"2020-08-03 02:00:00",15.1,11.7,0.0,0.0,0,1014.1,1,2,"",80
"2020-08-03 02:01:00",15.1,11.7,0.0,0.0,0,1014.1,1,1,"",80
"2020-08-03 02:02:00",15.1,11.7,0.0,0.0,0,1014.0,1,2,"",80
"2020-08-03 02:03:00",15.1,11.9,0.0,0.0,0,1014.0,1,2,"",81
"2020-08-03 02:04:00",15.1,11.9,0.0,0.0,0,1014.1,0,2,"",81
"2020-08-03 02:05:00",15.1,11.9,0.0,0.0,0,1014.1,0,1,"",81
"2020-08-03 02:06:00",15.1,11.9,0.0,0.0,0,1014.0,0,2,"",81
"2020-08-03 02:07:00",15.1,11.9,0.0,0.0,0,1014.0,1,2,"",81
"2020-08-03 02:08:00",15.1,11.9,0.0,0.0,0,1014.0,1,2,"",81
"2020-08-03 02:09:00",15.1,11.9,0.0,0.0,0,1014.0,0,1,"",81
"2020-08-03 02:10:00",15.1,11.9,0.0,0.0,0,1014.0,1,2,"",81
"2020-08-03 02:11:00",15.1,11.9,0.0,0.0,0,1014.0,0,1,"",81
"2020-08-03 02:12:00",15.1,11.9,0.0,0.0,0,1014.0,1,2,"",81
"2020-08-03 02:13:00",15.1,11.9,0.0,0.0,0,1014.0,1,2,"",81
"2020-08-03 02:14:00",15.1,11.9,0.0,0.0,0,1014.0,1,2,"",81
"2020-08-03 02:15:00",15.2,12.1,0.0,0.0,0,1014.0,0,1,"",82
"2020-08-03 02:16:00",15.2,12.1,0.0,0.0,0,1014.0,0,1,"",82
"2020-08-03 02:17:00",15.2,12.1,0.0,0.0,0,1014.0,1,3,"",82
"2020-08-03 02:18:00",15.2,12.0,0.0,0.0,0,1014.0,1,2,"",81
"2020-08-03 02:19:00",15.2,12.0,0.0,0.0,0,1014.0,0,1,"",81
"2020-08-03 02:20:00",15.2,12.0,0.0,0.0,0,1014.0,1,1,"",81
"2020-08-03 02:21:00",15.2,12.0,0.0,0.0,0,1013.9,0,1,"",81
"2020-08-03 02:22:00",15.2,12.0,0.0,0.0,0,1014.0,0,1,"",81
"2020-08-03 02:23:00",15.1,11.9,0.0,0.0,0,1013.9,1,2,"",81
"2020-08-03 02:24:00",15.1,11.9,0.0,0.0,0,1014.0,1,2,"",81
"2020-08-03 02:25:00",15.1,11.9,0.0,0.0,0,1013.9,0,1,"",81
"2020-08-03 02:26:00",15.1,11.9,0.0,0.0,0,1013.9,1,2,"",81
"2020-08-03 02:27:00",15.0,11.8,0.0,0.0,0,1013.9,1,2,"",81
"2020-08-03 02:28:00",15.0,11.8,0.0,0.0,0,1013.9,1,2,"",81
"2020-08-03 02:29:00",14.9,11.9,0.0,0.0,0,1013.9,1,2,"",82
"2020-08-03 02:30:00",14.9,11.9,0.0,0.0,0,1013.9,1,2,"",82
"2020-08-03 02:31:00",14.8,11.8,0.0,0.0,0,1013.9,1,2,"",82
"2020-08-03 02:32:00",14.8,11.8,0.0,0.0,0,1013.9,0,1,"",82
"2020-08-03 02:33:00",14.8,11.8,0.0,0.0,0,1013.9,0,1,"",82
"2020-08-03 02:34:00",14.8,11.8,0.0,0.0,0,1013.9,1,2,"",82
"2020-08-03 02:35:00",14.7,11.7,0.0,0.0,0,1013.9,1,2,"",82
"2020-08-03 02:36:00",14.7,11.7,0.0,0.0,0,1013.9,0,1,"",82
"2020-08-03 02:37:00",14.7,11.8,0.0,0.0,0,1013.9,1,2,"",83
"2020-08-03 02:38:00",14.7,11.8,0.0,0.0,0,1013.9,1,2,"",83
"2020-08-03 02:39:00",14.7,11.7,0.0,0.0,0,1013.9,2,4,"",82
"2020-08-03 02:40:00",14.7,11.8,0.0,0.0,0,1013.9,1,2,"",83
"2020-08-03 02:41:00",14.7,11.8,0.0,0.0,0,1013.9,0,1,"",83
"2020-08-03 02:42:00",14.6,11.7,0.0,0.0,0,1013.9,1,1,"",83
"2020-08-03 02:43:00",14.6,11.7,0.0,0.0,0,1013.9,1,1,"",83
"2020-08-03 02:44:00",14.6,11.7,0.0,0.0,0,1013.9,1,2,"",83
"2020-08-03 02:45:00",14.6,11.7,0.0,0.0,0,1013.9,1,1,"",83
"2020-08-03 02:46:00",14.6,11.7,0.0,0.0,0,1013.9,1,2,"",83
"2020-08-03 02:47:00",14.6,11.7,0.0,0.0,0,1013.8,0,2,"",83
"2020-08-03 02:48:00",14.5,11.6,0.0,0.0,0,1013.8,1,2,"",83
"2020-08-03 02:49:00",14.5,11.6,0.0,0.0,0,1013.8,1,2,"",83
"2020-08-03 02:50:00",14.4,11.5,0.0,0.0,0,1013.8,2,3,"",83
"2020-08-03 02:51:00",14.4,11.5,0.0,0.0,0,1013.8,1,2,"",83
"2020-08-03 02:52:00",14.4,11.5,0.0,0.0,0,1013.8,1,1,"",83
"2020-08-03 02:53:00",14.4,11.5,0.0,0.0,0,1013.8,0,1,"",83
"2020-08-03 02:54:00",14.3,11.5,0.0,0.0,0,1013.8,1,2,"",83
"2020-08-03 02:55:00",14.3,11.5,0.0,0.0,0,1013.8,1,2,"",83
"2020-08-03 02:56:00",14.3,11.5,0.0,0.0,0,1013.8,1,2,"",83
"2020-08-03 02:57:00",14.3,11.6,0.0,0.0,0,1013.8,0,1,"",84
"2020-08-03 02:58:00",14.3,11.6,0.0,0.0,0,1013.8,1,2,"",84
"2020-08-03 02:59:00",14.3,11.6,0.0,0.0,0,1013.8,1,2,"",84
"2020-08-03 03:00:00",14.3,11.6,0.0,0.0,0,1013.8,1,2,"",84
"2020-08-03 03:01:00",14.3,11.6,0.0,0.0,0,1013.8,1,2,"",84
"2020-08-03 03:02:00",14.3,11.6,0.0,0.0,0,1013.8,1,1,"",84
"2020-08-03 03:03:00",14.3,11.6,0.0,0.0,0,1013.8,1,2,"",84
"2020-08-03 03:04:00",14.3,11.6,0.0,0.0,0,1013.8,1,2,"",84
"2020-08-03 03:05:00",14.2,11.5,0.0,0.0,0,1013.8,2,3,"",84
"2020-08-03 03:06:00",14.2,11.5,0.0,0.0,0,1013.8,0,1,"",84
"2020-08-03 03:07:00",14.2,11.5,0.0,0.0,0,1013.8,1,2,"",84
"2020-08-03 03:08:00",14.2,11.5,0.0,0.0,0,1013.8,1,2,"",84
"2020-08-03 03:09:00",14.2,11.5,0.0,0.0,0,1013.8,1,2,"",84
"2020-08-03 03:10:00",14.1,11.4,0.0,0.0,0,1013.8,0,1,"",84
"2020-08-03 03:11:00",14.1,11.4,0.0,0.0,0,1013.8,1,2,"",84
"2020-08-03 03:12:00",14.1,11.4,0.0,0.0,0,1013.8,2,3,"",84
"2020-08-03 03:13:00",14.1,11.4,0.0,0.0,0,1013.8,1,2,"",84
"2020-08-03 03:14:00",14.0,11.3,0.0,0.0,0,1013.7,1,2,"",84
"2020-08-03 03:15:00",14.0,11.3,0.0,0.0,0,1013.7,1,2,"",84
"2020-08-03 03:16:00",13.9,11.4,0.0,0.0,0,1013.7,1,3,"",85
"2020-08-03 03:17:00",13.9,11.4,0.0,0.0,0,1013.7,1,2,"",85
"2020-08-03 03:18:00",13.9,11.4,0.0,0.0,0,1013.7,1,2,"",85
"2020-08-03 03:19:00",13.8,11.3,0.0,0.0,0,1013.7,1,1,"",85
"2020-08-03 03:20:00",13.8,11.3,0.0,0.0,0,1013.7,1,2,"",85
"2020-08-03 03:21:00",13.8,11.3,0.0,0.0,0,1013.7,1,2,"",85
"2020-08-03 03:22:00",13.8,11.3,0.0,0.0,0,1013.7,1,2,"",85
"2020-08-03 03:23:00",13.8,11.3,0.0,0.0,0,1013.7,1,2,"",85
"2020-08-03 03:24:00",13.7,11.2,0.0,0.0,0,1013.7,1,1,"",85
"2020-08-03 03:25:00",13.7,11.2,0.0,0.0,0,1013.7,0,1,"",85
"2020-08-03 03:26:00",13.7,11.2,0.0,0.0,0,1013.7,1,2,"",85
"2020-08-03 03:27:00",13.7,11.2,0.0,0.0,0,1013.7,1,1,"",85
"2020-08-03 03:28:00",13.7,11.2,0.0,0.0,0,1013.7,1,2,"",85
"2020-08-03 03:29:00",13.6,11.1,0.0,0.0,0,1013.7,1,2,"",85
"2020-08-03 03:30:00",13.6,11.3,0.0,0.0,0,1013.6,1,2,"",86
"2020-08-03 03:31:00",13.6,11.3,0.0,0.0,0,1013.7,1,2,"",86
"2020-08-03 03:32:00",13.6,11.3,0.0,0.0,0,1013.7,1,1,"",86
"2020-08-03 03:33:00",13.6,11.3,0.0,0.0,0,1013.7,1,2,"",86
"2020-08-03 03:34:00",13.6,11.3,0.0,0.0,0,1013.7,1,1,"",86
"2020-08-03 03:35:00",13.6,11.3,0.0,0.0,0,1013.7,1,1,"",86
"2020-08-03 03:36:00",13.6,11.3,0.0,0.0,0,1013.7,1,2,"",86
"2020-08-03 03:37:00",13.6,11.3,0.0,0.0,0,1013.7,2,2,"",86
"2020-08-03 03:38:00",13.6,11.3,0.0,0.0,0,1013.7,1,3,"",86
"2020-08-03 03:39:00",13.6,11.3,0.0,0.0,0,1013.7,1,1,"",86
"2020-08-03 03:40:00",13.6,11.3,0.0,0.0,0,1013.7,1,2,"",86
"2020-08-03 03:41:00",13.6,11.3,0.0,0.0,0,1013.7,1,1,"",86
"2020-08-03 03:42:00",13.6,11.3,0.0,0.0,0,1013.7,1,2,"",86
"2020-08-03 03:43:00",13.6,11.3,0.0,0.0,0,1013.7,2,3,"",86
"2020-08-03 03:44:00",13.7,11.4,0.0,0.0,0,1013.6,0,1,"",86
"2020-08-03 03:45:00",13.7,11.4,0.0,0.0,0,1013.6,1,2,"",86
"2020-08-03 03:46:00",13.7,11.2,0.0,0.0,0,1013.7,1,2,"",85
"2020-08-03 03:47:00",13.7,11.2,0.0,0.0,0,1013.7,1,3,"",85
"2020-08-03 03:48:00",13.7,11.2,0.0,0.0,0,1013.7,1,2,"",85
"2020-08-03 03:49:00",13.8,11.3,0.0,0.0,0,1013.7,2,3,"",85
"2020-08-03 03:50:00",13.7,11.2,0.0,0.0,0,1013.6,1,2,"",85
"2020-08-03 03:51:00",13.8,11.3,0.0,0.0,0,1013.6,1,2,"",85
"2020-08-03 03:52:00",13.8,11.3,0.0,0.0,0,1013.6,1,2,"",85
"2020-08-03 03:53:00",13.8,11.3,0.0,0.0,0,1013.6,1,3,"",85
"2020-08-03 03:54:00",13.8,11.3,0.0,0.0,0,1013.6,1,1,"",85
"2020-08-03 03:55:00",13.8,11.3,0.0,0.0,0,1013.6,1,2,"",85
"2020-08-03 03:56:00",13.8,11.3,0.0,0.0,0,1013.6,0,1,"",85
"2020-08-03 03:57:00",13.8,11.3,0.0,0.0,0,1013.6,1,2,"",85
"2020-08-03 03:58:00",13.8,11.3,0.0,0.0,0,1013.6,1,2,"",85
"2020-08-03 03:59:00",13.8,11.3,0.0,0.0,0,1013.6,1,2,"",85
"2020-08-03 04:00:00",13.8,11.3,0.0,0.0,0,1013.6,0,2,"",85
"2020-08-03 04:01:00",13.7,11.2,0.0,0.0,0,1013.6,1,1,"",85
"2020-08-03 04:02:00",13.8,11.3,0.0,0.0,0,1013.6,1,2,"",85
"2020-08-03 04:03:00",13.7,11.2,0.0,0.0,0,1013.6,1,2,"",85
"2020-08-03 04:04:00",13.7,11.2,0.0,0.0,0,1013.6,1,2,"",85
"2020-08-03 04:05:00",13.7,11.2,0.0,0.0,0,1013.6,0,1,"",85
"2020-08-03 04:06:00",13.7,11.2,0.0,0.0,0,1013.6,1,2,"",85
"2020-08-03 04:07:00",13.7,11.2,0.0,0.0,0,1013.6,0,2,"",85
"2020-08-03 04:08:00",13.7,11.2,0.0,0.0,0,1013.6,1,2,"",85
"2020-08-03 04:09:00",13.7,11.2,0.0,0.0,0,1013.6,1,2,"",85
"2020-08-03 04:10:00",13.6,11.1,0.0,0.0,0,1013.6,1,2,"",85
"2020-08-03 04:11:00",13.7,11.2,0.0,0.0,0,1013.6,1,2,"",85
"2020-08-03 04:12:00",13.6,11.1,0.0,0.0,0,1013.6,0,1,"",85
"2020-08-03 04:13:00",13.6,11.1,0.0,0.0,0,1013.5,0,1,"",85
"2020-08-03 04:14:00",13.6,11.1,0.0,0.0,0,1013.5,1,2,"",85
"2020-08-03 04:15:00",13.6,11.1,0.0,0.0,0,1013.6,1,2,"",85
"2020-08-03 04:16:00",13.6,11.1,0.0,0.0,0,1013.5,1,2,"",85
"2020-08-03 04:17:00",13.6,11.1,0.0,0.0,0,1013.6,0,1,"",85
"2020-08-03 04:18:00",13.6,11.1,0.0,0.0,0,1013.6,1,3,"",85
"2020-08-03 04:19:00",13.6,11.1,0.0,0.0,0,1013.6,2,3,"",85
"2020-08-03 04:20:00",13.6,11.1,0.0,0.0,0,1013.6,1,2,"",85
"2020-08-03 04:21:00",13.5,11.0,0.0,0.0,0,1013.5,1,2,"",85
"2020-08-03 04:22:00",13.5,11.0,0.0,0.0,0,1013.6,1,1,"",85
"2020-08-03 04:23:00",13.5,11.0,0.0,0.0,0,1013.5,1,1,"",85
"2020-08-03 04:24:00",13.5,11.0,0.0,0.0,0,1013.6,1,2,"",85
"2020-08-03 04:25:00",13.4,10.9,0.0,0.0,0,1013.6,0,1,"",85
"2020-08-03 04:26:00",13.4,10.9,0.0,0.0,0,1013.5,1,2,"",85
"2020-08-03 04:27:00",13.4,10.9,0.0,0.0,0,1013.5,1,2,"",85
"2020-08-03 04:28:00",13.4,10.9,0.0,0.0,0,1013.5,1,3,"",85
"2020-08-03 04:29:00",13.4,10.9,0.0,0.0,0,1013.5,0,2,"",85
"2020-08-03 04:30:00",13.3,10.8,0.0,0.0,0,1013.5,1,2,"",85
"2020-08-03 04:31:00",13.4,10.9,0.0,0.0,0,1013.6,0,1,"",85
"2020-08-03 04:32:00",13.3,10.8,0.0,0.0,0,1013.6,0,2,"",85
"2020-08-03 04:33:00",13.3,10.8,0.0,0.0,0,1013.6,1,3,"",85
"2020-08-03 04:34:00",13.3,10.8,0.0,0.0,0,1013.6,1,1,"",85
"2020-08-03 04:35:00",13.3,10.8,0.0,0.0,0,1013.6,0,1,"",85
"2020-08-03 04:36:00",13.3,10.8,0.0,0.0,0,1013.6,0,1,"",85
"2020-08-03 04:37:00",13.2,10.7,0.0,0.0,0,1013.6,1,2,"",85
"2020-08-03 04:38:00",13.2,10.7,0.0,0.0,0,1013.6,1,2,"",85
"2020-08-03 04:39:00",13.1,10.6,0.0,0.0,0,1013.6,0,1,"",85
"2020-08-03 04:40:00",13.2,10.9,0.0,0.0,0,1013.6,1,1,"",86
"2020-08-03 04:41:00",13.1,10.6,0.0,0.0,0,1013.6,0,2,"",85
"2020-08-03 04:42:00",13.1,10.6,0.0,0.0,0,1013.7,1,2,"",85
"2020-08-03 04:43:00",13.1,10.6,0.0,0.0,0,1013.7,1,3,"",85
"2020-08-03 04:44:00",13.0,10.7,0.0,0.0,0,1013.7,1,1,"",86
"2020-08-03 04:45:00",13.1,10.8,0.0,0.0,0,1013.7,1,1,"",86
"2020-08-03 04:46:00",13.1,10.8,0.0,0.0,0,1013.6,1,2,"",86
"2020-08-03 04:47:00",13.0,10.7,0.0,0.0,0,1013.7,1,2,"",86
"2020-08-03 04:48:00",12.9,10.6,0.0,0.0,0,1013.7,0,1,"",86
"2020-08-03 04:49:00",12.9,10.6,0.0,0.0,0,1013.6,1,2,"",86
"2020-08-03 04:50:00",12.9,10.6,0.0,0.0,0,1013.7,1,2,"",86
"2020-08-03 04:51:00",12.9,10.6,0.0,0.0,0,1013.7,1,2,"",86
"2020-08-03 04:52:00",12.9,10.6,0.0,0.0,0,1013.7,1,2,"",86
"2020-08-03 04:53:00",12.8,10.5,0.0,0.0,0,1013.6,1,2,"",86
"2020-08-03 04:54:00",12.8,10.5,0.0,0.0,0,1013.7,1,2,"",86
"2020-08-03 04:55:00",12.8,10.5,0.0,0.0,0,1013.7,1,2,"",86
"2020-08-03 04:56:00",12.8,10.5,0.0,0.0,0,1013.7,1,2,"",86
"2020-08-03 04:57:00",12.7,10.4,0.0,0.0,0,1013.7,0,1,"",86
"2020-08-03 04:58:00",12.7,10.6,0.0,0.0,0,1013.7,1,2,"",87
"2020-08-03 04:59:00",12.7,10.6,0.0,0.0,0,1013.8,1,2,"",87
"2020-08-03 05:00:00",12.7,10.6,0.0,0.0,0,1013.7,1,2,"",87
"2020-08-03 05:01:00",12.7,10.6,0.0,0.0,0,1013.7,0,2,"",87
"2020-08-03 05:02:00",12.7,10.6,0.0,0.0,0,1013.7,1,1,"",87
"2020-08-03 05:03:00",12.7,10.6,0.0,0.0,0,1013.7,1,2,"",87
"2020-08-03 05:04:00",12.7,10.6,0.0,0.0,0,1013.7,0,1,"",87
"2020-08-03 05:05:00",12.7,10.6,0.0,0.0,0,1013.7,1,2,"",87
"2020-08-03 05:06:00",12.7,10.6,0.0,0.0,0,1013.7,1,2,"",87
"2020-08-03 05:07:00",12.6,10.5,0.0,0.0,0,1013.7,1,2,"",87
"2020-08-03 05:08:00",12.6,10.5,0.0,0.0,0,1013.7,1,2,"",87
"2020-08-03 05:09:00",12.6,10.5,0.0,0.0,0,1013.7,1,2,"",87
"2020-08-03 05:10:00",12.6,10.5,0.0,0.0,0,1013.8,0,2,"",87
"2020-08-03 05:11:00",12.6,10.5,0.0,0.0,0,1013.8,1,2,"",87
"2020-08-03 05:12:00",12.5,10.4,0.0,0.0,0,1013.8,1,2,"",87
"2020-08-03 05:13:00",12.5,10.4,0.0,0.0,0,1013.8,1,1,"",87
"2020-08-03 05:14:00",12.4,10.3,0.0,0.0,0,1013.9,1,2,"",87
"2020-08-03 05:15:00",12.4,10.3,0.0,0.0,0,1013.9,1,1,"",87
"2020-08-03 05:16:00",12.4,10.3,0.0,0.0,0,1013.9,0,1,"",87
"2020-08-03 05:17:00",12.4,10.3,0.0,0.0,0,1013.9,0,1,"",87
"2020-08-03 05:18:00",12.4,10.3,0.0,0.0,0,1013.9,1,2,"",87
"2020-08-03 05:19:00",12.4,10.3,0.0,0.0,0,1013.9,1,2,"",87
"2020-08-03 05:20:00",12.3,10.2,0.0,0.0,0,1013.9,0,1,"",87
"2020-08-03 05:21:00",12.3,10.2,0.0,0.0,0,1013.9,1,2,"",87
"2020-08-03 05:22:00",12.3,10.4,0.0,0.0,0,1013.9,1,1,"",88
"2020-08-03 05:23:00",12.3,10.2,0.0,0.0,0,1013.9,0,1,"",87
"2020-08-03 05:24:00",12.3,10.4,0.0,0.0,0,1013.9,1,2,"",88
"2020-08-03 05:25:00",12.3,10.4,0.0,0.0,0,1013.9,1,2,"",88
"2020-08-03 05:26:00",12.3,10.4,0.0,0.0,0,1013.9,1,1,"",88
"2020-08-03 05:27:00",12.3,10.4,0.0,0.0,0,1013.9,1,1,"",88
"2020-08-03 05:28:00",12.2,10.3,0.0,0.0,0,1014.0,1,2,"",88
"2020-08-03 05:29:00",12.2,10.3,0.0,0.0,0,1014.0,0,1,"",88
"2020-08-03 05:30:00",12.2,10.3,0.0,0.0,0,1014.0,0,1,"",88
"2020-08-03 05:31:00",12.1,10.2,0.0,0.0,0,1014.0,0,1,"",88
"2020-08-03 05:32:00",12.1,10.2,0.0,0.0,0,1014.0,0,1,"",88
"2020-08-03 05:33:00",12.1,10.2,0.0,0.0,0,1014.0,0,1,"",88
"2020-08-03 05:34:00",12.1,10.2,0.0,0.0,0,1014.0,0,1,"",88
"2020-08-03 05:35:00",12.0,10.1,0.0,0.0,0,1014.0,0,1,"",88
"2020-08-03 05:36:00",12.0,10.1,0.0,0.0,0,1014.0,0,2,"",88
"2020-08-03 05:37:00",12.0,10.1,0.0,0.0,0,1014.0,1,2,"",88
"2020-08-03 05:38:00",12.0,10.1,0.0,0.0,0,1014.0,0,1,"",88
"2020-08-03 05:39:00",12.0,10.1,0.0,0.0,0,1014.1,0,1,"",88
"2020-08-03 05:40:00",12.0,10.1,0.0,0.0,0,1014.1,0,1,"",88
"2020-08-03 05:41:00",12.1,10.2,0.0,0.0,0,1014.1,1,2,"",88
"2020-08-03 05:42:00",12.1,10.2,0.0,0.0,0,1014.1,0,1,"",88
"2020-08-03 05:43:00",12.1,10.2,0.0,0.0,0,1014.1,0,1,"",88
"2020-08-03 05:44:00",12.1,10.2,0.0,0.0,0,1014.1,0,1,"",88
"2020-08-03 05:45:00",12.1,10.3,0.0,0.0,0,1014.1,1,1,"",89
"2020-08-03 05:46:00",12.1,10.2,0.0,0.0,5,1014.1,0,2,"",88
"2020-08-03 05:47:00",12.1,10.3,0.0,0.0,5,1014.1,0,1,"",89
"2020-08-03 05:48:00",12.1,10.3,0.0,0.0,5,1014.1,0,1,"",89
"2020-08-03 05:49:00",12.1,10.3,0.0,0.0,7,1014.1,0,1,"",89
"2020-08-03 05:50:00",12.1,10.3,0.0,0.0,7,1014.1,1,2,"",89
"2020-08-03 05:51:00",12.1,10.3,0.0,0.0,7,1014.1,0,1,"",89
"2020-08-03 05:52:00",12.1,10.2,0.0,0.0,7,1014.1,1,2,"",88
"2020-08-03 05:53:00",12.2,10.4,0.0,0.0,9,1014.1,0,1,"",89
"2020-08-03 05:54:00",12.2,10.4,0.0,0.0,9,1014.1,0,2,"",89
"2020-08-03 05:55:00",12.2,10.4,0.0,0.0,9,1014.1,1,1,"",89
"2020-08-03 05:56:00",12.2,10.4,0.0,0.0,9,1014.1,0,1,"",89
"2020-08-03 05:57:00",12.2,10.4,0.0,0.0,9,1014.1,1,1,"",89
"2020-08-03 05:58:00",12.3,10.4,0.0,0.0,11,1014.1,0,1,"",88
"2020-08-03 05:59:00",12.3,10.4,0.0,0.0,11,1014.1,1,1,"",88
"2020-08-03 06:00:00",12.3,10.4,0.0,0.0,11,1014.1,1,1,"",88
"2020-08-03 06:01:00",12.3,10.4,0.0,0.0,11,1014.1,0,1,"",88
"2020-08-03 06:02:00",12.3,10.4,0.0,0.0,11,1014.2,1,2,"",88
"2020-08-03 06:03:00",12.4,10.5,0.0,0.0,11,1014.1,0,1,"",88
"2020-08-03 06:04:00",12.4,10.5,0.0,0.0,12,1014.1,0,1,"",88
"2020-08-03 06:05:00",12.4,10.5,0.0,0.0,12,1014.1,0,1,"",88
"2020-08-03 06:06:00",12.4,10.5,0.0,0.0,12,1014.1,1,1,"",88
"2020-08-03 06:07:00",12.5,10.6,0.0,0.0,14,1014.1,0,2,"",88
"2020-08-03 06:08:00",12.5,10.6,0.0,0.0,14,1014.1,0,1,"",88
"2020-08-03 06:09:00",12.5,10.6,0.0,0.0,16,1014.1,0,1,"",88
"2020-08-03 06:10:00",12.6,10.7,0.0,0.0,18,1014.1,0,2,"",88
"2020-08-03 06:11:00",12.6,10.7,0.0,0.0,19,1014.1,1,2,"",88
"2020-08-03 06:12:00",12.6,10.7,0.0,0.0,19,1014.2,1,2,"",88
"2020-08-03 06:13:00",12.6,10.7,0.0,0.0,19,1014.2,1,2,"",88
"2020-08-03 06:14:00",12.6,10.7,0.0,0.0,21,1014.2,0,2,"",88
"2020-08-03 06:15:00",12.6,10.7,0.0,0.0,23,1014.2,1,2,"",88
"2020-08-03 06:16:00",12.6,10.7,0.0,0.0,26,1014.1,1,2,"",88
"2020-08-03 06:17:00",12.6,10.7,0.0,0.0,26,1014.2,1,1,"",88
"2020-08-03 06:18:00",12.6,10.7,0.0,0.0,26,1014.1,1,2,"",88
"2020-08-03 06:19:00",12.6,10.7,0.0,0.0,26,1014.2,1,1,"",88
"2020-08-03 06:20:00",12.6,10.7,0.0,0.0,26,1014.2,1,2,"",88
"2020-08-03 06:21:00",12.6,10.7,0.0,0.0,26,1014.2,1,2,"",88
"2020-08-03 06:22:00",12.6,10.7,0.0,0.0,25,1014.1,1,2,"",88
"2020-08-03 06:23:00",12.6,10.7,0.0,0.0,25,1014.1,1,2,"",88
"2020-08-03 06:24:00",12.6,10.7,0.0,0.0,25,1014.2,0,1,"",88
"2020-08-03 06:25:00",12.6,10.7,0.0,0.0,23,1014.1,1,2,"",88
"2020-08-03 06:26:00",12.6,10.7,0.0,0.0,21,1014.2,0,1,"",88
"2020-08-03 06:27:00",12.6,10.7,0.0,0.0,21,1014.2,1,1,"",88
"2020-08-03 06:28:00",12.6,10.7,0.0,0.0,23,1014.2,0,1,"",88
"2020-08-03 06:29:00",12.6,10.7,0.0,0.0,23,1014.2,0,1,"",88
"2020-08-03 06:30:00",12.6,10.7,0.0,0.0,25,1014.2,1,2,"",88
"2020-08-03 06:31:00",12.6,10.7,0.0,0.0,26,1014.2,0,1,"",88
"2020-08-03 06:32:00",12.6,10.7,0.0,0.0,28,1014.2,0,1,"",88
"2020-08-03 06:33:00",12.6,10.7,0.0,0.0,30,1014.2,1,2,"",88
"2020-08-03 06:34:00",12.6,10.7,0.0,0.0,30,1014.2,1,2,"",88
"2020-08-03 06:35:00",12.6,10.7,0.0,0.0,32,1014.2,1,1,"",88
"2020-08-03 06:36:00",12.6,10.7,0.0,0.0,33,1014.2,1,1,"",88
"2020-08-03 06:37:00",12.6,10.7,0.0,0.0,33,1014.3,0,1,"",88
"2020-08-03 06:38:00",12.6,10.7,0.0,0.0,33,1014.3,1,2,"",88
"2020-08-03 06:39:00",12.6,10.7,0.0,0.0,28,1014.3,1,1,"",88
"2020-08-03 06:40:00",12.6,10.7,0.0,0.0,26,1014.3,0,1,"",88
"2020-08-03 06:41:00",12.6,10.7,0.0,0.0,23,1014.3,1,1,"",88
"2020-08-03 06:42:00",12.6,10.7,0.0,0.0,23,1014.3,1,1,"",88
"2020-08-03 06:43:00",12.6,10.7,0.0,0.0,26,1014.3,1,2,"",88